Home   Weather   Yokohama   Past weeks

Flag for Japan Past Weather in Yokohama, Japan — Yesterday and Last 2 Weeks

54 °F

Sprinkles. Fog.

Feels Like: 50 °F
Forecast: 56 / 66 °F
Wind: 10 mph from Northwest

Location: Tokyo International Airport

Current Time: Oct 28, 2016 at 11:04:54 PM

Latest Report: Oct 28, 2016 at 10:30 PM

Visibility: 3 mi

Pressure: 29.77 "Hg

Humidity: 100%

Dew Point: 54 °F

Location of YokohamaLocation

Past Weather in Yokohama — Graph


Yokohama Temperature Yesterday

Maximum temperature yesterday: 73 °F (at 1:30 PM)
Minimum temperature yesterday: 63 °F (at 10:00 PM)
Average temperature yesterday: 69 °F

High & Low Weather Summary for the Past Weeks

High81 °F (Oct 20, 2:30 PM)100% (Oct 17, 9:00 AM)30.39 "Hg (Oct 17, 9:00 AM)
Low52 °F (Oct 28, 1:30 PM)32% (Oct 20, 6:00 PM)29.74 "Hg (Oct 23, 3:00 AM)
Average65 °F70%30.05 "Hg
* Reported Oct 13 10:00 PM — Oct 28 10:00 PM, Yokohama, Weather by CustomWeather, © 2016

Note: Actual official high and low records may vary slightly from our data, if they occured in-between our weather recording intervals... More about our weather records


Yokohama Weather History for the Previous 24 Hours

Scroll right to see more
Time TempWeatherWind HumidityBarometerVisibility
10:00 PM
Fri, Oct 28
54 °FCool.14 mph100%29.80 "Hg1 mi
9:45 PM54 °FRain. Fog.12 mph100%29.80 "Hg2 mi
9:30 PM54 °FRain. Fog.10 mph100%29.80 "Hg2 mi
9:00 PM54 °FRain. Fog.10 mph100%29.83 "Hg2 mi
8:30 PM54 °FLight rain. Fog.7 mph100%29.86 "Hg2 mi
8:00 PM54 °FLight rain. Fog.8 mph100%29.86 "Hg2 mi
7:30 PM54 °FLight rain. Fog.9 mph100%29.89 "Hg2 mi
7:00 PM54 °FLight rain. Fog.9 mph100%29.92 "Hg2 mi
6:30 PM54 °FLight rain. Fog.8 mph100%29.95 "Hg2 mi
6:00 PM54 °FLight rain. Partly cloudy.10 mph100%29.95 "Hg4 mi
5:30 PM54 °FLight rain. Fog.8 mph94%29.95 "Hg3 mi
5:00 PM54 °FLight rain. Fog.8 mph100%29.95 "Hg2 mi
4:30 PM54 °FLight rain. Fog.7 mph100%29.98 "Hg2 mi
4:00 PM54 °FRain. Fog.6 mph100%29.98 "Hg2 mi
3:30 PM54 °FLight rain. Fog.6 mph100%29.98 "Hg3 mi
3:00 PM54 °FDrizzle. Fog.3 mph100%29.98 "Hg3 mi
2:48 PM54 °FLight rain. Fog.2 mph100%29.98 "Hg3 mi
2:30 PM54 °FLight rain. Fog.3 mph94%30.01 "Hg2 mi
2:00 PM52 °FLight rain. Fog.13 mph100%30.01 "Hg2 mi
1:30 PM52 °FRain. Fog.13 mph100%30.04 "Hg2 mi
1:00 PM54 °FRain. Fog.13 mph88%30.04 "Hg3 mi
12:30 PM57 °FLight rain. Partly sunny.12 mph67%30.04 "Hg6 mi
12:00 PM59 °FPartly sunny.12 mph55%30.04 "HgN/A
11:30 AM59 °FPartly sunny.8 mph59%30.07 "HgN/A
11:00 AM59 °FPartly sunny.8 mph55%30.07 "HgN/A
10:30 AM61 °FPartly sunny.7 mph52%30.07 "HgN/A
10:00 AM61 °FBroken clouds.6 mph48%30.09 "HgN/A
9:30 AM61 °FBroken clouds.7 mph52%30.12 "HgN/A
9:00 AM59 °FBroken clouds.5 mph48%30.12 "HgN/A
8:30 AM59 °FBroken clouds.5 mph48%30.15 "HgN/A
8:00 AM59 °FBroken clouds.6 mph48%30.15 "HgN/A
7:30 AM59 °FPartly sunny.6 mph48%30.15 "HgN/A
7:00 AM59 °FBroken clouds.6 mph51%30.15 "HgN/A
6:30 AM59 °FPartly sunny.7 mph51%30.15 "HgN/A
6:00 AM57 °FBroken clouds.8 mph55%30.15 "HgN/A
5:30 AM59 °FPassing clouds.9 mph55%30.15 "HgN/A
5:00 AM59 °FPassing clouds.9 mph59%30.15 "HgN/A
4:30 AM59 °FPartly cloudy.8 mph55%30.15 "HgN/A
4:00 AM61 °FPassing clouds.9 mph52%30.15 "HgN/A
3:30 AM61 °FPassing clouds.9 mph52%30.15 "HgN/A
3:00 AM61 °FPassing clouds.8 mph52%30.15 "HgN/A
2:30 AM61 °FPassing clouds.10 mph52%30.15 "HgN/A
2:00 AM61 °FPassing clouds.8 mph52%30.15 "HgN/A
1:30 AM63 °FPassing clouds.10 mph49%30.18 "HgN/A
1:00 AM63 °FPassing clouds.9 mph45%30.18 "HgN/A
12:30 AM63 °FPassing clouds.8 mph56%30.18 "HgN/A
12:00 AM63 °FPassing clouds.7 mph56%30.15 "HgN/A
11:30 PM
Thu, Oct 27
63 °FPassing clouds.7 mph73%30.18 "HgN/A
11:00 PM63 °FPassing clouds.1 mph64%30.15 "HgN/A
Weather by CustomWeather, © 2016

See weather overviewHow to use our weather pages